Flag for U.S.A. Weather past 2 weeks in Scranton, Pennsylvania, U.S.A.

Now
31 °F

Light snow. Overcast.


Feels Like: 20 °F
Forecast: 13 / 30 °F
Wind: 16 mph from Northwest

Location: Barre - Scranton - Wilkes-Barre / Scranton International Airport

Current Time: Jan 30, 2015 at 12:47:46 PM

Latest Report: Jan 30, 2015 at 11:54 AM


Visibility: 4 mi

Pressure: 29.93 "Hg

Humidity: 67%

Dew point: 21 °F

Location of ScrantonLocation

Historic Weather in Scranton — Graph

°F

Scranton temperature yesterday

Maximum temperature yesterday: 32 °F (at 3:54 PM)
Minimum temperature yesterday: 3 °F (at 6:54 AM)
Average temperature yesterday: 19 °F

Past Weeks' High & Low Weather Summary

 TemperatureHumidityPressure
High40 °F (Jan 18, 9:54 AM)93% (Jan 24, 3:54 AM)30.37 "Hg (Jan 24, 3:54 AM)
Low3 °F (Jan 29, 6:54 AM)27% (Jan 29, 3:54 PM)29.36 "Hg (Jan 24, 2:54 PM)
Average26 °F67%29.98 "Hg
* Reported Jan 15 10:54 AM — Jan 30 10:54 AM, Scranton, Weather by CustomWeather, © 2014

Note: Actual official high and low records may vary slightly from our data, if they occured in-between our weather recording intervals... More about our weather records

Advertising

Scranton weather history for previous 24 hours

 ConditionsComfort  
Time TempWeatherWind HumidityBarometerVisibility
10:54 AM
Jan 30
30 °FLight snow. Mostly cloudy.14 mph72%29.93 "Hg4 mi
10:01 AM29 °FLight snow. Cloudy.6 mph82%29.90 "Hg1 mi
9:02 AM28 °FSnow. Ice fog.6 mph89%29.88 "Hg1 mi
8:54 AM28 °FSnow. Ice fog.7 mph89%29.90 "Hg0 mi
7:54 AM27 °FHeavy snow. Ice fog.6 mph89%29.89 "Hg0 mi
7:03 AM27 °FLight snow. Ice fog.6 mph89%29.84 "Hg1 mi
6:54 AM27 °FLight snow. Ice fog.3 mph89%29.87 "Hg1 mi
5:54 AM28 °FLight snow. Overcast.8 mph81%29.86 "Hg3 mi
4:54 AM27 °FLight snow. Ice fog.7 mph85%29.84 "Hg4 mi
3:54 AM27 °FLight snow. Ice fog.5 mph85%29.85 "Hg2 mi
2:54 AM27 °FIce fog.3 mph89%29.86 "Hg4 mi
1:54 AM27 °FIce fog.5 mph85%29.87 "Hg5 mi
12:54 AM27 °FLight snow. Ice fog.5 mph85%29.88 "Hg3 mi
11:54 PM
Jan 29
28 °FLight snow. Mostly cloudy.6 mph75%29.89 "Hg2 mi
10:54 PM28 °FOvercast.6 mph72%29.91 "Hg10 mi
9:54 PM27 °FLight snow. Overcast.5 mph75%29.95 "Hg6 mi
9:01 PM26 °FLight snow. Overcast.6 mph74%29.94 "Hg2 mi
7:54 PM25 °FLight snow. Mostly cloudy.N/A75%30.00 "Hg5 mi
6:54 PM25 °FLight snow. Ice fog.9 mph72%30.02 "Hg1 mi
5:54 PM30 °FOvercast.8 mph33%30.01 "Hg10 mi
4:54 PM31 °FOvercast.5 mph30%30.03 "Hg10 mi
3:54 PM32 °FOvercast.No wind27%30.03 "Hg10 mi
2:54 PM28 °FMostly cloudy.No wind45%30.06 "Hg10 mi
1:54 PM29 °FPartly sunny.No wind39%30.08 "Hg10 mi
12:54 PM24 °FOvercast.No wind52%30.13 "Hg5 mi
Weather by CustomWeather, © 2014

See weather overviewHow to use our weather pages